| time (UTC) | temp F | wind direction | speed MPH | gust MPH | rain 1hr in | rain 24hr in | rain mn in | humidity % | barometer mb |
| 20260508132529 | 55 | 283 | 1.0 | 0.0 | 0.00 | 0.85 | 0.00 | 75 | 1002.6 |
| 20260508132027 | 55 | 296 | 1.0 | 0.0 | 0.00 | 0.85 | 0.00 | 85 | 1002.6 |
| 20260508131526 | 54 | 32 | 0.0 | 0.0 | 0.00 | 0.85 | 0.00 | 89 | 1002.2 |
| 20260508131024 | 54 | 177 | 1.0 | 0.0 | 0.00 | 0.85 | 0.00 | 80 | 1002.6 |
| 20260508130523 | 53 | 25 | 2.0 | 0.0 | 0.00 | 0.85 | 0.00 | 87 | 1002.2 |
| 20260508125520 | 52 | 344 | 0.0 | 0.0 | 0.00 | 0.85 | 0.00 | 88 | 1002.6 |
| 20260508125019 | 52 | 298 | 0.0 | 0.0 | 0.00 | 0.85 | 0.00 | 90 | 1002.2 |
| 20260508124015 | 50 | 16 | 0.0 | 0.0 | 0.00 | 0.85 | 0.00 | 91 | 1002.6 |
| 20260508123514 | 50 | 3 | 0.0 | 0.0 | 0.00 | 0.85 | 0.00 | 91 | 1002.6 |
| 20260508123012 | 50 | 3 | 0.0 | 0.0 | 0.00 | 0.85 | 0.00 | 93 | 1002.6 |
| 20260508122511 | 50 | 215 | 1.0 | 0.0 | 0.00 | 0.85 | 0.00 | 90 | 1002.6 |
| 20260508122009 | 51 | 9 | 0.0 | 0.0 | 0.00 | 0.85 | 0.00 | 88 | 1002.6 |
| 20260508121508 | 53 | 38 | 0.0 | 0.0 | 0.00 | 0.85 | 0.00 | 91 | 1002.6 |
| 20260508121006 | 51 | 274 | 0.0 | 0.0 | 0.00 | 0.86 | 0.00 | 93 | 1002.6 |
| 20260508120505 | 50 | 272 | 1.0 | 0.0 | 0.00 | 0.86 | 0.00 | 94 | 1002.6 |
| 20260508120004 | 49 | 270 | 1.0 | 0.0 | 0.00 | 0.86 | 0.00 | 93 | 1002.6 |
| 20260508115502 | 50 | 357 | 0.0 | 0.0 | 0.00 | 0.86 | 0.00 | 98 | 1002.6 |
| 20260508114058 | 48 | 130 | 0.0 | 0.0 | 0.00 | 0.86 | 0.00 | 95 | 1002.6 |
| 20260508113055 | 47 | 44 | 0.0 | 0.0 | 0.00 | 0.86 | 0.00 | 95 | 1002.6 |
| 20260508112553 | 46 | 30 | 0.0 | 0.0 | 0.00 | 0.86 | 0.00 | 96 | 1002.6 |
| 20260508112051 | 46 | 307 | 0.0 | 0.0 | 0.00 | 0.86 | 0.00 | 98 | 1002.6 |
| 20260508111549 | 45 | 1 | 0.0 | 0.0 | 0.00 | 0.86 | 0.00 | 98 | 1002.6 |
| 20260508111048 | 45 | 308 | 2.0 | 0.0 | 0.00 | 0.86 | 0.00 | 99 | 1002.6 |
| 20260508110046 | 44 | 314 | 1.0 | 0.0 | 0.00 | 0.90 | 0.00 | 10 | 1002.6 |
| 20260508105543 | 44 | 344 | 0.0 | 0.0 | 0.00 | 0.90 | 0.00 | 10 | 1002.6 |
| 20260508105042 | 44 | 337 | 1.0 | 0.0 | 0.00 | 0.90 | 0.00 | 10 | 1002.6 |
| 20260508104541 | 44 | 319 | 0.0 | 0.0 | 0.00 | 0.90 | 0.00 | 10 | 1002.6 |
| 20260508104041 | 44 | 312 | 0.0 | 0.0 | 0.00 | 0.90 | 0.00 | 10 | 1002.6 |
| 20260508103540 | 44 | 308 | 0.0 | 0.0 | 0.00 | 0.90 | 0.00 | 10 | 1002.6 |
| 20260508103037 | 44 | 305 | 1.0 | 0.0 | 0.00 | 0.90 | 0.00 | 10 | 1002.6 |
| 20260508102536 | 44 | 316 | 0.0 | 0.0 | 0.00 | 0.90 | 0.00 | 10 | 1002.6 |
| 20260508102032 | 44 | 294 | 0.0 | 0.0 | 0.00 | 0.92 | 0.00 | 10 | 1002.6 |
| 20260508101530 | 44 | 342 | 0.0 | 0.0 | 0.00 | 0.92 | 0.00 | 10 | 1002.6 |
| 20260508101028 | 44 | 330 | 0.0 | 0.0 | 0.00 | 0.92 | 0.00 | 10 | 1002.9 |
| 20260508100528 | 44 | 305 | 0.0 | 0.0 | 0.00 | 0.92 | 0.00 | 10 | 1002.6 |
| 20260508100026 | 44 | 352 | 0.0 | 0.0 | 0.00 | 0.92 | 0.00 | 10 | 1002.6 |
| 20260508095525 | 44 | 344 | 0.0 | 0.0 | 0.00 | 0.92 | 0.00 | 10 | 1002.6 |
| 20260508095023 | 43 | 358 | 0.0 | 0.0 | 0.00 | 0.92 | 0.00 | 10 | 1002.6 |
| 20260508094522 | 43 | 354 | 0.0 | 0.0 | 0.00 | 0.92 | 0.00 | 10 | 1002.6 |
| 20260508094020 | 43 | 353 | 0.0 | 0.0 | 0.00 | 0.92 | 0.00 | 10 | 1002.6 |
| 20260508093519 | 43 | 350 | 0.0 | 0.0 | 0.00 | 0.92 | 0.00 | 10 | 1002.6 |
| 20260508093018 | 43 | 340 | 1.0 | 0.0 | 0.00 | 0.92 | 0.00 | 10 | 1002.6 |
| 20260508092516 | 43 | 357 | 0.0 | 0.0 | 0.00 | 0.92 | 0.00 | 10 | 1002.2 |
| 20260508092015 | 43 | 6 | 0.0 | 0.0 | 0.00 | 0.92 | 0.00 | 10 | 1002.2 |
| 20260508091513 | 43 | 354 | 0.0 | 0.0 | 0.00 | 0.92 | 0.00 | 10 | 1002.2 |
| 20260508091011 | 43 | 350 | 0.0 | 0.0 | 0.00 | 0.94 | 0.00 | 10 | 1002.2 |
| 20260508090509 | 43 | 328 | 0.0 | 0.0 | 0.00 | 0.96 | 0.00 | 10 | 1002.2 |
| 20260508090009 | 43 | 258 | 0.0 | 0.0 | 0.00 | 1.00 | 0.00 | 10 | 1002.2 |
| 20260508085506 | 43 | 262 | 0.0 | 0.0 | 0.00 | 1.00 | 0.00 | 10 | 1002.2 |
| 20260508085005 | 43 | 352 | 0.0 | 0.0 | 0.00 | 1.01 | 0.00 | 10 | 1002.2 |
| 20260508084503 | 43 | 359 | 0.0 | 0.0 | 0.00 | 1.02 | 0.00 | 10 | 1002.2 |
| 20260508084001 | 43 | 352 | 0.0 | 0.0 | 0.00 | 1.02 | 0.00 | 10 | 1002.2 |
| 20260508083100 | 43 | 7 | 0.0 | 0.0 | 0.00 | 1.02 | 0.00 | 10 | 1001.9 |
| 20260508082557 | 43 | 306 | 0.0 | 0.0 | 0.00 | 1.02 | 0.00 | 10 | 1002.2 |
| 20260508082056 | 43 | 274 | 0.0 | 0.0 | 0.00 | 1.02 | 0.00 | 10 | 1002.6 |
| 20260508081556 | 44 | 224 | 0.0 | 0.0 | 0.00 | 1.02 | 0.00 | 10 | 1002.6 |
| 20260508080552 | 44 | 163 | 0.0 | 0.0 | 0.00 | 1.02 | 0.00 | 10 | 1002.2 |
| 20260508080051 | 44 | 142 | 0.0 | 0.0 | 0.00 | 1.02 | 0.00 | 10 | 1002.2 |
| 20260508075549 | 43 | 211 | 0.0 | 0.0 | 0.00 | 1.02 | 0.00 | 10 | 1001.9 |
| 20260508075048 | 43 | 0 | 0.0 | 0.0 | 0.00 | 1.02 | 0.00 | 10 | 1001.9 |
| 20260508074545 | 43 | 304 | 1.0 | 0.0 | 0.00 | 1.02 | 0.00 | 10 | 1001.9 |
| 20260508074044 | 43 | 343 | 0.0 | 0.0 | 0.00 | 1.02 | 0.00 | 10 | 1001.9 |
| 20260508073543 | 43 | 59 | 0.0 | 0.0 | 0.00 | 1.02 | 0.00 | 10 | 1001.9 |
| 20260508073041 | 43 | 75 | 1.0 | 0.0 | 0.00 | 1.02 | 0.00 | 10 | 1002.2 |
| 20260508072540 | 42 | 359 | 0.0 | 0.0 | 0.00 | 1.02 | 0.00 | 10 | 1002.2 |
| 20260508072037 | 42 | 351 | 0.0 | 0.0 | 0.00 | 1.02 | 0.00 | 10 | 1002.2 |
| 20260508071031 | 43 | 355 | 0.0 | 0.0 | 0.00 | 1.02 | 0.00 | 10 | 1002.2 |
| 20260508070529 | 43 | 358 | 0.0 | 0.0 | 0.00 | 1.02 | 0.00 | 10 | 1001.9 |
| 20260508065024 | 43 | 5 | 0.0 | 0.0 | 0.00 | 1.02 | 0.00 | 10 | 1001.9 |
| 20260508064523 | 43 | 12 | 0.0 | 0.0 | 0.00 | 1.02 | 0.00 | 10 | 1001.9 |
| 20260508064021 | 43 | 356 | 0.0 | 0.0 | 0.00 | 1.02 | 0.00 | 10 | 1002.2 |
| 20260508063520 | 44 | 6 | 0.0 | 0.0 | 0.00 | 1.02 | 0.00 | 10 | 1002.2 |
| 20260508063018 | 44 | 64 | 0.0 | 0.0 | 0.00 | 1.02 | 0.00 | 99 | 1002.2 |
| 20260508062015 | 44 | 314 | 1.0 | 0.0 | 0.00 | 1.02 | 0.00 | 99 | 1001.9 |
| 20260508061514 | 44 | 351 | 0.0 | 0.0 | 0.00 | 1.02 | 0.00 | 99 | 1002.2 |
| 20260508060511 | 45 | 10 | 0.0 | 0.0 | 0.00 | 1.02 | 0.00 | 99 | 1001.9 |
| 20260508060010 | 45 | 20 | 0.0 | 0.0 | 0.00 | 1.02 | 0.00 | 10 | 1002.2 |
| 20260508055509 | 45 | 120 | 0.0 | 0.0 | 0.00 | 1.02 | 0.00 | 10 | 1002.2 |
| 20260508055007 | 45 | 159 | 0.0 | 0.0 | 0.00 | 1.02 | 0.00 | 99 | 1002.2 |
| 20260508054003 | 46 | 345 | 0.0 | 0.0 | 0.00 | 1.02 | 0.00 | 99 | 1002.2 |
| 20260508053000 | 46 | 217 | 0.0 | 0.0 | 0.00 | 1.02 | 0.00 | 99 | 1002.2 |
| 20260508052559 | 46 | 319 | 0.0 | 0.0 | 0.00 | 1.02 | 0.00 | 99 | 1002.2 |
| 20260508052058 | 46 | 271 | 0.0 | 0.0 | 0.00 | 1.02 | 0.00 | 99 | 1002.6 |
| 20260508051558 | 46 | 243 | 0.0 | 0.0 | 0.00 | 1.02 | 0.00 | 99 | 1002.6 |
| 20260508050554 | 46 | 5 | 0.0 | 0.0 | 0.00 | 1.02 | 0.00 | 99 | 1002.6 |
| 20260508050053 | 46 | 223 | 0.0 | 0.0 | 0.00 | 1.02 | 0.00 | 99 | 1002.6 |
| 20260508045052 | 46 | 195 | 0.0 | 0.0 | 0.00 | 1.02 | 0.00 | 99 | 1002.2 |
| 20260508044549 | 46 | 319 | 0.0 | 0.0 | 0.00 | 1.02 | 0.00 | 99 | 1002.2 |
| 20260508043541 | 47 | 130 | 0.0 | 0.0 | 0.00 | 1.02 | 0.00 | 99 | 1002.2 |
| 20260508043041 | 47 | 322 | 0.0 | 0.0 | 0.00 | 1.02 | 0.00 | 99 | 1002.2 |
| 20260508042038 | 48 | 126 | 0.0 | 0.0 | 0.00 | 1.02 | 0.00 | 99 | 1002.2 |
| 20260508041534 | 48 | 320 | 0.0 | 0.0 | 0.00 | 1.02 | 0.00 | 99 | 1002.6 |
| 20260508041032 | 48 | 334 | 0.0 | 0.0 | 0.00 | 1.02 | 0.00 | 99 | 1002.2 |
| 20260508040530 | 48 | 351 | 0.0 | 0.0 | 0.00 | 1.02 | 0.00 | 99 | 1002.2 |
| 20260508040029 | 48 | 353 | 0.0 | 0.0 | 0.00 | 1.02 | 0.00 | 99 | 1002.6 |
| 20260508035527 | 48 | 15 | 0.0 | 0.0 | 0.00 | 1.02 | 0.00 | 99 | 1002.6 |
| 20260508035026 | 48 | 30 | 0.0 | 0.0 | 0.00 | 1.02 | 0.00 | 99 | 1002.6 |
| 20260508034524 | 48 | 1 | 0.0 | 0.0 | 0.00 | 1.02 | 0.00 | 99 | 1002.6 |
| 20260508034023 | 48 | 356 | 0.0 | 0.0 | 0.00 | 1.02 | 0.00 | 99 | 1002.6 |
| 20260508033521 | 48 | 2 | 0.0 | 0.0 | 0.00 | 1.02 | 0.00 | 99 | 1002.6 |
| 20260508032519 | 48 | 288 | 1.0 | 0.0 | 0.00 | 1.02 | 0.00 | 99 | 1002.6 |
| 20260508032018 | 48 | 311 | 0.0 | 0.0 | 0.00 | 1.02 | 0.00 | 99 | 1002.6 |
| 20260508031517 | 48 | 292 | 0.0 | 0.0 | 0.00 | 1.02 | 0.00 | 98 | 1002.6 |
| 20260508031015 | 48 | 340 | 0.0 | 0.0 | 0.00 | 1.02 | 0.00 | 98 | 1002.6 |
| 20260508030514 | 48 | 223 | 0.0 | 0.0 | 0.00 | 1.02 | 0.00 | 98 | 1002.6 |
| 20260508030013 | 47 | 255 | 0.0 | 0.0 | 0.00 | 1.02 | 0.00 | 98 | 1002.6 |
| 20260508025511 | 47 | 297 | 0.0 | 0.0 | 0.00 | 1.02 | 0.00 | 98 | 1002.6 |
| 20260508025010 | 47 | 6 | 0.0 | 0.0 | 0.00 | 1.02 | 0.00 | 98 | 1002.6 |
| 20260508024508 | 47 | 342 | 0.0 | 0.0 | 0.00 | 1.02 | 0.00 | 98 | 1002.6 |
| 20260508024006 | 48 | 358 | 0.0 | 0.0 | 0.00 | 1.02 | 0.00 | 98 | 1002.6 |
| 20260508023505 | 48 | 351 | 0.0 | 0.0 | 0.00 | 1.02 | 0.00 | 97 | 1002.6 |
| 20260508023004 | 48 | 353 | 0.0 | 0.0 | 0.00 | 1.02 | 0.00 | 97 | 1002.6 |
| 20260508021055 | 49 | 353 | 0.0 | 0.0 | 0.00 | 1.02 | 0.00 | 97 | 1002.9 |
| 20260508020554 | 49 | 334 | 0.0 | 0.0 | 0.00 | 1.02 | 0.00 | 97 | 1002.9 |
| 20260508015553 | 49 | 336 | 0.0 | 0.0 | 0.00 | 1.02 | 0.00 | 97 | 1002.6 |
| 20260508015050 | 49 | 320 | 0.0 | 0.0 | 0.00 | 1.02 | 0.00 | 97 | 1002.9 |
| 20260508014549 | 49 | 320 | 0.0 | 0.0 | 0.00 | 1.02 | 0.00 | 97 | 1002.9 |
| 20260508014047 | 49 | 280 | 0.0 | 0.0 | 0.00 | 1.02 | 0.00 | 97 | 1002.9 |
| 20260508013545 | 49 | 253 | 1.0 | 0.0 | 0.00 | 1.02 | 0.00 | 97 | 1002.9 |
| 20260508012542 | 49 | 92 | 0.0 | 0.0 | 0.00 | 1.02 | 0.00 | 97 | 1002.6 |
| 20260508012041 | 49 | 327 | 0.0 | 0.0 | 0.00 | 1.02 | 0.00 | 97 | 1002.6 |
| 20260508011539 | 49 | 352 | 0.0 | 0.0 | 0.00 | 1.02 | 0.00 | 97 | 1002.6 |
| 20260508011038 | 49 | 316 | 0.0 | 0.0 | 0.00 | 1.02 | 0.00 | 97 | 1002.9 |
| 20260508010537 | 49 | 22 | 0.0 | 0.0 | 0.00 | 1.02 | 0.00 | 97 | 1002.9 |
| 20260508010036 | 49 | 173 | 1.0 | 0.0 | 0.00 | 1.02 | 0.00 | 97 | 1002.9 |
| 20260508005533 | 49 | 294 | 1.0 | 0.0 | 0.00 | 1.02 | 0.00 | 97 | 1002.6 |
| 20260508005032 | 49 | 212 | 1.0 | 0.0 | 0.00 | 1.02 | 0.00 | 97 | 1002.2 |
| 20260508004530 | 49 | 307 | 0.0 | 0.0 | 0.00 | 1.02 | 0.00 | 97 | 1002.2 |
| 20260508003026 | 50 | 153 | 1.0 | 0.0 | 0.00 | 1.02 | 0.00 | 96 | 1002.2 |
| 20260508002524 | 50 | 173 | 2.0 | 0.0 | 0.00 | 1.02 | 0.00 | 96 | 1002.2 |
| 20260508002023 | 50 | 151 | 1.0 | 0.0 | 0.00 | 1.02 | 0.00 | 96 | 1002.2 |
| 20260508001521 | 50 | 183 | 2.0 | 0.0 | 0.00 | 1.02 | 0.00 | 96 | 1002.2 |
| 20260508001020 | 50 | 226 | 2.0 | 0.0 | 0.00 | 1.02 | 0.00 | 96 | 1002.2 |
| 20260508000518 | 51 | 179 | 1.0 | 0.0 | 0.00 | 1.02 | 0.00 | 96 | 1002.2 |
| 20260508000017 | 51 | 197 | 3.0 | 0.0 | 0.00 | 1.02 | 0.00 | 96 | 1002.2 |
| 20260507235514 | 51 | 16 | 2.0 | 0.0 | 0.00 | 1.02 | 0.00 | 96 | 1002.2 |
| 20260507235013 | 51 | 224 | 0.0 | 0.0 | 0.00 | 1.02 | 0.00 | 96 | 1002.2 |
| 20260507234510 | 51 | 184 | 2.0 | 0.0 | 0.00 | 1.02 | 0.00 | 96 | 1002.2 |
| 20260507234008 | 51 | 93 | 0.0 | 0.0 | 0.00 | 1.02 | 0.00 | 95 | 1002.2 |
| 20260507233506 | 51 | 217 | 1.0 | 0.0 | 0.00 | 1.02 | 0.00 | 95 | 1001.9 |
| 20260507233004 | 51 | 164 | 1.0 | 0.0 | 0.00 | 1.02 | 0.00 | 95 | 1002.2 |
| 20260507232501 | 52 | 196 | 2.0 | 0.0 | 0.00 | 1.02 | 0.00 | 95 | 1002.2 |
| 20260507232059 | 52 | 180 | 2.0 | 0.0 | 0.00 | 1.02 | 0.00 | 95 | 1001.9 |
| 20260507231558 | 52 | 233 | 1.0 | 0.0 | 0.00 | 1.02 | 0.00 | 94 | 1001.9 |
| 20260507231054 | 52 | 281 | 1.0 | 0.0 | 0.00 | 1.08 | 0.00 | 94 | 1001.9 |
| 20260507230553 | 52 | 243 | 1.0 | 0.0 | 0.00 | 1.08 | 0.00 | 94 | 1001.9 |
| 20260507230051 | 53 | 269 | 3.0 | 0.0 | 0.00 | 1.08 | 0.00 | 94 | 1001.9 |
| 20260507225549 | 53 | 218 | 2.0 | 0.0 | 0.00 | 1.08 | 0.00 | 95 | 1001.9 |
| 20260507225046 | 52 | 230 | 2.0 | 0.0 | 0.00 | 1.11 | 0.00 | 96 | 1001.9 |
| 20260507224542 | 52 | 243 | 3.0 | 0.0 | 0.00 | 1.11 | 0.00 | 96 | 1002.2 |
| 20260507224041 | 52 | 295 | 1.0 | 0.0 | 0.00 | 1.11 | 0.00 | 97 | 1002.2 |
| 20260507223534 | 52 | 243 | 3.0 | 0.0 | 0.00 | 1.11 | 0.00 | 97 | 1002.2 |
| 20260507223032 | 52 | 277 | 2.0 | 0.0 | 0.00 | 1.11 | 0.00 | 97 | 1002.2 |
| 20260507222028 | 53 | 113 | 1.0 | 0.0 | 0.00 | 1.11 | 0.00 | 97 | 1001.9 |
| 20260507221526 | 53 | 238 | 2.0 | 0.0 | 0.00 | 1.11 | 0.00 | 97 | 1001.9 |
| 20260507221024 | 53 | 206 | 1.0 | 0.0 | 0.00 | 1.11 | 0.00 | 97 | 1001.9 |
| 20260507220522 | 53 | 225 | 3.0 | 0.0 | 0.00 | 1.11 | 0.00 | 96 | 1001.9 |
| 20260507220019 | 53 | 234 | 3.0 | 0.0 | 0.01 | 1.11 | 0.00 | 97 | 1001.9 |
| 20260507215518 | 53 | 258 | 4.0 | 0.0 | 0.01 | 1.11 | 0.00 | 97 | 1001.9 |
| 20260507215017 | 53 | 270 | 5.0 | 0.0 | 0.01 | 1.11 | 0.00 | 97 | 1001.9 |
| 20260507214515 | 53 | 294 | 1.0 | 0.0 | 0.01 | 1.11 | 0.00 | 97 | 1001.9 |
| 20260507214014 | 52 | 211 | 2.0 | 0.0 | 0.01 | 1.13 | 0.00 | 97 | 1001.9 |
| 20260507213513 | 53 | 269 | 6.0 | 0.0 | 0.02 | 1.13 | 0.00 | 97 | 1001.9 |
| 20260507213012 | 53 | 280 | 1.0 | 0.0 | 0.02 | 1.13 | 0.00 | 97 | 1002.2 |
| 20260507212510 | 53 | 276 | 2.0 | 0.0 | 0.02 | 1.13 | 0.00 | 97 | 1001.9 |
| 20260507212008 | 54 | 258 | 5.0 | 0.0 | 0.02 | 1.14 | 0.00 | 97 | 1001.9 |
| 20260507211004 | 55 | 168 | 2.0 | 0.0 | 0.02 | 1.18 | 0.00 | 98 | 1001.9 |
| 20260507210502 | 55 | 212 | 2.0 | 0.0 | 0.02 | 1.18 | 0.00 | 98 | 1001.9 |
| 20260507210000 | 55 | 254 | 3.0 | 0.0 | 0.01 | 1.17 | 0.00 | 98 | 1001.9 |
| 20260507205057 | 55 | 189 | 2.0 | 0.0 | 0.01 | 1.18 | 0.00 | 97 | 1001.9 |
| 20260507204053 | 55 | 234 | 2.0 | 0.0 | 0.01 | 1.18 | 0.00 | 97 | 1001.9 |
| 20260507203550 | 55 | 5 | 2.0 | 0.0 | 0.00 | 1.17 | 0.00 | 97 | 1001.6 |
| 20260507202042 | 55 | 268 | 4.0 | 0.0 | 0.00 | 1.17 | 0.00 | 96 | 1001.6 |
| 20260507201541 | 55 | 206 | 2.0 | 0.0 | 0.00 | 1.17 | 0.00 | 95 | 1001.6 |
| 20260507200031 | 56 | 271 | 2.0 | 0.0 | 0.00 | 1.17 | 0.00 | 95 | 1001.2 |
| 20260507195529 | 55 | 183 | 1.0 | 0.0 | 0.00 | 1.17 | 0.00 | 95 | 1001.2 |
| 20260507195026 | 55 | 173 | 3.0 | 0.0 | 0.00 | 1.17 | 0.00 | 94 | 1001.2 |
| 20260507194524 | 55 | 205 | 4.0 | 0.0 | 0.00 | 1.17 | 0.00 | 94 | 1001.2 |
| 20260507193521 | 56 | 68 | 1.0 | 0.0 | 0.00 | 1.17 | 0.00 | 95 | 1001.2 |
| 20260507193019 | 56 | 356 | 1.0 | 0.0 | 0.01 | 1.17 | 0.00 | 95 | 1001.2 |
| 20260507192015 | 56 | 241 | 1.0 | 0.0 | 0.02 | 1.17 | 0.00 | 95 | 1001.2 |
| 20260507191514 | 57 | 86 | 1.0 | 0.0 | 0.02 | 1.17 | 0.00 | 95 | 1001.2 |
| 20260507191011 | 55 | 281 | 0.0 | 0.0 | 0.02 | 1.17 | 0.00 | 96 | 1001.2 |
| 20260507190510 | 54 | 156 | 3.0 | 0.0 | 0.03 | 1.17 | 0.00 | 96 | 1001.6 |
| 20260507185508 | 54 | 217 | 3.0 | 0.0 | 0.04 | 1.17 | 0.00 | 97 | 1000.9 |
| 20260507185006 | 54 | 213 | 4.0 | 0.0 | 0.05 | 1.17 | 0.00 | 97 | 1000.5 |
| 20260507184505 | 54 | 307 | 2.0 | 0.0 | 0.06 | 1.17 | 0.00 | 98 | 1000.2 |
| 20260507184002 | 54 | 346 | 1.0 | 0.0 | 0.06 | 1.17 | 0.00 | 99 | 999.2 |
| 20260507183501 | 53 | 81 | 2.0 | 0.0 | 0.07 | 1.17 | 0.00 | 99 | 999.9 |
| 20260507182558 | 53 | 323 | 3.0 | 0.0 | 0.05 | 1.15 | 0.00 | 99 | 1001.2 |
| 20260507182057 | 53 | 30 | 2.0 | 0.0 | 0.05 | 1.15 | 0.00 | 99 | 1001.2 |
| 20260507181555 | 53 | 41 | 3.0 | 0.0 | 0.06 | 1.15 | 0.00 | 98 | 1001.9 |
| 20260507180552 | 53 | 113 | 2.0 | 0.0 | 0.08 | 1.15 | 0.00 | 98 | 1001.9 |
| 20260507175550 | 53 | 39 | 3.0 | 0.0 | 0.10 | 1.13 | 0.00 | 98 | 1001.9 |
| 20260507175048 | 53 | 352 | 2.0 | 0.0 | 0.11 | 1.13 | 0.00 | 98 | 1001.9 |
| 20260507174547 | 53 | 317 | 2.0 | 0.0 | 0.11 | 1.11 | 0.00 | 98 | 1001.9 |
| 20260507174045 | 53 | 356 | 2.0 | 0.0 | 0.14 | 1.11 | 0.00 | 98 | 1002.2 |
| 20260507173544 | 53 | 2 | 3.0 | 0.0 | 0.16 | 1.10 | 0.00 | 98 | 1002.6 |
| 20260507173041 | 53 | 23 | 2.0 | 0.0 | 0.19 | 1.10 | 0.00 | 98 | 1002.2 |
| 20260507172540 | 53 | 334 | 0.0 | 0.0 | 0.21 | 1.10 | 0.00 | 98 | 1002.2 |
| 20260507172035 | 53 | 25 | 2.0 | 0.0 | 0.23 | 1.10 | 0.00 | 98 | 1002.2 |
| 20260507171031 | 53 | 10 | 3.0 | 0.0 | 0.29 | 1.09 | 0.00 | 98 | 1002.9 |
| 20260507170528 | 53 | 323 | 3.0 | 0.0 | 0.32 | 1.07 | 0.00 | 98 | 1003.6 |
| 20260507165524 | 53 | 129 | 3.0 | 0.0 | 0.36 | 1.03 | 0.00 | 98 | 1003.6 |
| 20260507165022 | 53 | 48 | 3.0 | 0.0 | 0.38 | 1.02 | 0.00 | 98 | 1003.3 |
| 20260507164520 | 54 | 117 | 1.0 | 0.0 | 0.41 | 1.00 | 0.00 | 98 | 1003.3 |
| 20260507164017 | 54 | 83 | 2.0 | 0.0 | 0.45 | 0.97 | 0.00 | 98 | 1003.9 |
| 20260507163514 | 54 | 263 | 1.0 | 0.0 | 0.45 | 0.94 | 0.00 | 98 | 1003.6 |
| 20260507162008 | 54 | 274 | 3.0 | 0.0 | 0.50 | 0.87 | 0.00 | 98 | 1003.9 |
| 20260507161506 | 54 | 113 | 3.0 | 0.0 | 0.46 | 0.83 | 0.00 | 98 | 1004.3 |
| 20260507160501 | 55 | 215 | 4.0 | 0.0 | 0.40 | 0.75 | 0.00 | 98 | 1003.9 |
| 20260507155559 | 55 | 188 | 3.0 | 0.0 | 0.32 | 0.67 | 0.00 | 98 | 1003.9 |
| 20260507154554 | 55 | 157 | 1.0 | 0.0 | 0.26 | 0.61 | 0.00 | 98 | 1004.3 |
| 20260507154052 | 55 | 73 | 2.0 | 0.0 | 0.18 | 0.53 | 0.00 | 98 | 1004.3 |
| 20260507153048 | 55 | 167 | 4.0 | 0.0 | 0.11 | 0.46 | 0.00 | 97 | 1004.3 |
| 20260507152545 | 56 | 199 | 6.0 | 0.0 | 0.04 | 0.39 | 0.00 | 96 | 1003.9 |
| 20260507151543 | 56 | 166 | 5.0 | 0.0 | 0.02 | 0.37 | 0.00 | 96 | 1003.9 |
| 20260507151042 | 56 | 187 | 3.0 | 0.0 | 0.02 | 0.37 | 0.00 | 95 | 1003.9 |
| 20260507150540 | 56 | 339 | 7.0 | 0.0 | 0.00 | 0.35 | 0.00 | 94 | 1003.9 |
| 20260507150038 | 56 | 53 | 5.0 | 0.0 | 0.00 | 0.35 | 0.00 | 94 | 1003.9 |
| 20260507145533 | 56 | 203 | 4.0 | 0.0 | 0.00 | 0.35 | 0.00 | 93 | 1003.9 |
| 20260507145032 | 56 | 63 | 5.0 | 0.0 | 0.00 | 0.35 | 0.00 | 92 | 1003.9 |
| 20260507144530 | 56 | 32 | 2.0 | 0.0 | 0.00 | 0.35 | 0.00 | 91 | 1003.9 |
| 20260507144029 | 57 | 10 | 5.0 | 0.0 | 0.00 | 0.35 | 0.00 | 91 | 1004.3 |
| 20260507143528 | 57 | 61 | 10.0 | 0.0 | 0.01 | 0.35 | 0.00 | 91 | 1004.3 |
| 20260507142524 | 57 | 277 | 5.0 | 0.0 | 0.01 | 0.35 | 0.00 | 90 | 1004.3 |
| 20260507142023 | 57 | 152 | 7.0 | 0.0 | 0.01 | 0.35 | 0.00 | 90 | 1004.3 |
| 20260507141021 | 57 | 91 | 8.0 | 0.0 | 0.01 | 0.35 | 0.00 | 90 | 1004.3 |
| 20260507140519 | 57 | 4 | 10.0 | 0.0 | 0.01 | 0.35 | 0.00 | 89 | 1004.3 |
| 20260507140017 | 58 | 203 | 10.0 | 0.0 | 0.01 | 0.35 | 0.00 | 89 | 1004.3 |
| 20260507135515 | 58 | 32 | 8.0 | 0.0 | 0.01 | 0.35 | 0.00 | 89 | 1004.6 |
| 20260507135014 | 58 | 121 | 3.0 | 0.0 | 0.01 | 0.35 | 0.00 | 90 | 1004.3 |
| 20260507134010 | 57 | 46 | 6.0 | 0.0 | 0.01 | 0.35 | 0.00 | 90 | 1004.6 |
| 20260507133509 | 57 | 232 | 7.0 | 0.0 | 0.00 | 0.34 | 0.00 | 89 | 1005.0 |
| 20260507133008 | 57 | 153 | 20.0 | 0.0 | 0.00 | 0.34 | 0.00 | 90 | 1005.0 |